sat.trackr.live / text

‹ back to catalog

STARLINK-5886

NORAD 56350 · 2023-058AK

PAYLOAD ACTIVE UNKNOWN

§ Identity

Operator
Country
US
Launch date
2023-04-27
Launch site
AFWTR
Launch vehicle
Mass (kg)
RCS (m²)

Purposes: comms

External: N2YO · Heavens-Above · Gunter

§ Orbital elements

Epoch: 2026-05-25T00:19:25.300128Z

Period
95.64 min
Inclination
97.4452°
Eccentricity
0.0002747
Mean motion
15.05676431 rev/d
Perigee alt
547.5 km
Apogee alt
551.3 km
Semi-major
6,927.6 km
B*
-3.4829e-4
RAAN
146.1215°
Arg perigee
85.8501°
Mean anomaly
274.3040°
Rev number
16,968

§ Raw data

STARLINK-58861 56350U 23058AK  26145.01348727 -.00005084  00000+0 -34829-3 0  99942 56350  97.4452 146.1215 0002747  85.8501 274.3040 15.05676431169687

JSON: /api/v1/satellites/56350 · /tle

For live sub-satellite position, see the globe view (requires WebGL).

§ Visibility from observer

Set your observer location to see the next 7 days of passes ≥ 10°. The values pass through the URL so the page stays shareable.

No JS? Fill the form by hand. The geolocation button needs JavaScript.